Location: Czekanka
(50.4925°N, 19.2643°E)
Time: 16:13:11
(UTC+00:00)

SL-16 R/B - Pass Details

Date: 27 September 2024
Orbit: 842 x 846 km, 71.0° (Epoch: 07 October)

Event Time Altitude Azimuth Distance (km) Brightness Sun altitude
Rises 22:28:23 0° 325° (NW) 3,412 6.0 -41.6°
Reaches altitude 10° 22:33:28 10° 4° (N) 2,474 5.3 -41.6°
Maximum altitude 22:34:34 11° 16° (NNE) 2,435 5.2 -41.6°
Drops below altitude 10° 22:35:41 10° 27° (NNE) 2,473 5.2 -41.6°
Sets 22:40:45 0° 66° (ENE) 3,405 5.6 -41.6°
